When you browse on this site, cookies collect data to enhance your experience and personalize the content and advertising you see.
Visit our Privacy Policy to learn more. By continuing to use the site, you agree to this use of cookies and data.
  • In Czech Republic
  • List of Countries
  • For 7 days
  • Water Temperature
  • Satellite Maps
  • Weather Map
  • Weather Widgets
  • user-avatar
    Login

    Hourly Weather Georgetown

    Today, 21 July, Sunday

    Time Temperature Precipitation Wind Pressure Humidity
    00:00 +32°C° 0 mm 5 mps 734 mmHg 58%
    01:00 +32°C° 0 mm 6 mps 734 mmHg 60%
    02:00 +32°C° 0 mm 6 mps 733 mmHg 63%
    03:00 +32°C° 0 mm 7 mps 733 mmHg 65%
    04:00 +30°C° 0 mm 7 mps 732 mmHg 68%
    05:00 +30°C° 0 mm 6 mps 733 mmHg 69%
    06:00 +30°C° 0 mm 6 mps 733 mmHg 69%
    07:00 +30°C° 0 mm 5 mps 734 mmHg 70%
    08:00 +30°C° 0 mm 5 mps 734 mmHg 69%
    09:00 +30°C° 0 mm 5 mps 735 mmHg 67%
    10:00 +32°C° 0 mm 5 mps 735 mmHg 66%
    11:00 +29°C° 2.1 mm 6 mps 735 mmHg 73%
    12:00 +28°C° 2.1 mm 8 mps 735 mmHg 79%
    13:00 +27°C° 2.1 mm 9 mps 735 mmHg 86%
    14:00 +27°C° 1.8 mm 8 mps 734 mmHg 84%
    15:00 +27°C° 1.8 mm 7 mps 733 mmHg 82%
    16:00 +28°C° 1.8 mm 6 mps 732 mmHg 80%
    17:00 +28°C° 0 mm 5 mps 732 mmHg 80%
    18:00 +28°C° 0 mm 5 mps 732 mmHg 80%
    19:00 +28°C° 0 mm 4 mps 733 mmHg 79%
    20:00 +28°C° 0 mm 4 mps 733 mmHg 80%
    21:00 +28°C° 0 mm 4 mps 733 mmHg 80%
    22:00 +28°C° 0 mm 4 mps 733 mmHg 80%
    23:00 +28°C° 0 mm 5 mps 733 mmHg 80%

    Tomorrow, 22 July, Monday

    Time Temperature Precipitation Wind Pressure Humidity
    00:00 +28°C° 0 mm 5 mps 733 mmHg 81%
    01:00 +28°C° 0 mm 5 mps 732 mmHg 81%
    02:00 +28°C° 0 mm 5 mps 732 mmHg 81%
    03:00 +28°C° 0 mm 5 mps 732 mmHg 81%
    04:00 +28°C° 0 mm 5 mps 732 mmHg 80%
    05:00 +28°C° 0 mm 5 mps 732 mmHg 80%
    06:00 +28°C° 0 mm 5 mps 733 mmHg 79%
    07:00 +28°C° 0 mm 5 mps 734 mmHg 78%
    08:00 +28°C° 0 mm 5 mps 734 mmHg 75%
    09:00 +29°C° 0 mm 5 mps 734 mmHg 72%
    10:00 +29°C° 0 mm 5 mps 735 mmHg 69%
    11:00 +29°C° 0 mm 6 mps 734 mmHg 67%
    12:00 +29°C° 0 mm 6 mps 733 mmHg 66%
    13:00 +30°C° 0 mm 6 mps 733 mmHg 65%
    14:00 +30°C° 0 mm 5 mps 732 mmHg 63%
    15:00 +30°C° 0 mm 3 mps 732 mmHg 61%
    16:00 +31°C° 0 mm 2 mps 731 mmHg 60%
    17:00 +31°C° 0.1 mm 2 mps 731 mmHg 60%
    18:00 +31°C° 0.1 mm 2 mps 732 mmHg 60%
    19:00 +31°C° 0.1 mm 2 mps 732 mmHg 60%
    20:00 +31°C° 0.6 mm 2 mps 732 mmHg 60%
    21:00 +31°C° 0.6 mm 2 mps 733 mmHg 60%
    22:00 +31°C° 0.6 mm 2 mps 733 mmHg 60%
    23:00 +31°C° 0.6 mm 2 mps 733 mmHg 62%

    Day after tomorrow, 23 July, Tuesday

    Time Temperature Precipitation Wind Pressure Humidity
    00:00 +30°C° 0.6 mm 2 mps 733 mmHg 64%
    01:00 +30°C° 0.6 mm 2 mps 733 mmHg 66%
    02:00 +30°C° 0.4 mm 2 mps 733 mmHg 68%
    03:00 +29°C° 0.4 mm 3 mps 732 mmHg 70%
    04:00 +29°C° 0.4 mm 4 mps 732 mmHg 72%
    05:00 +29°C° 0 mm 5 mps 733 mmHg 73%
    06:00 +29°C° 0 mm 5 mps 733 mmHg 75%
    07:00 +29°C° 0 mm 5 mps 734 mmHg 76%
    08:00 +29°C° 0.3 mm 5 mps 734 mmHg 75%
    09:00 +29°C° 0.3 mm 6 mps 735 mmHg 74%
    10:00 +29°C° 0.3 mm 6 mps 735 mmHg 73%
    11:00 +29°C° 1.3 mm 6 mps 735 mmHg 74%
    12:00 +29°C° 1.3 mm 7 mps 734 mmHg 75%
    13:00 +29°C° 1.3 mm 7 mps 734 mmHg 76%
    14:00 +29°C° 0 mm 6 mps 733 mmHg 71%
    15:00 +30°C° 0 mm 6 mps 733 mmHg 67%
    16:00 +30°C° 0 mm 5 mps 732 mmHg 62%
    17:00 +30°C° 0 mm 5 mps 733 mmHg 64%
    18:00 +29°C° 0 mm 5 mps 733 mmHg 65%
    19:00 +28°C° 0 mm 5 mps 733 mmHg 66%
    20:00 +28°C° 0 mm 5 mps 733 mmHg 67%
    21:00 +28°C° 0 mm 5 mps 734 mmHg 68%
    22:00 +28°C° 0 mm 6 mps 734 mmHg 69%
    23:00 +28°C° 0 mm 6 mps 734 mmHg 71%

    24 July, Wednesday

    Time Temperature Precipitation Wind Pressure Humidity
    00:00 +28°C° 0 mm 5 mps 734 mmHg 72%
    01:00 +28°C° 0 mm 5 mps 734 mmHg 73%
    02:00 +28°C° 0 mm 5 mps 734 mmHg 75%
    03:00 +28°C° 0 mm 5 mps 733 mmHg 77%
    04:00 +28°C° 0 mm 5 mps 733 mmHg 78%
    05:00 +28°C° 0 mm 6 mps 734 mmHg 78%
    06:00 +28°C° 0 mm 6 mps 734 mmHg 77%
    07:00 +28°C° 0 mm 6 mps 734 mmHg 76%
    08:00 +28°C° 0 mm 6 mps 734 mmHg 73%
    09:00 +29°C° 0 mm 6 mps 735 mmHg 70%
    10:00 +29°C° 0 mm 6 mps 735 mmHg 67%
    11:00 +30°C° 0 mm 5 mps 735 mmHg 65%
    12:00 +30°C° 0 mm 5 mps 734 mmHg 63%
    13:00 +32°C° 0 mm 4 mps 734 mmHg 61%
    14:00 +31°C° 0 mm 3 mps 733 mmHg 59%
    15:00 +32°C° 0 mm 2 mps 733 mmHg 57%
    16:00 +32°C° 0 mm 2 mps 732 mmHg 56%
    17:00 +32°C° 0 mm 2 mps 732 mmHg 55%
    18:00 +32°C° 0 mm 2 mps 732 mmHg 55%
    19:00 +32°C° 0 mm 2 mps 732 mmHg 55%
    20:00 +32°C° 0 mm 2 mps 732 mmHg 54%
    21:00 +32°C° 0 mm 2 mps 732 mmHg 53%
    22:00 +32°C° 0 mm 2 mps 733 mmHg 53%
    23:00 +32°C° 0 mm 2 mps 733 mmHg 52%

    25 July, Thursday

    Time Temperature Precipitation Wind Pressure Humidity
    00:00 +33°C° 0 mm 3 mps 732 mmHg 52%
    01:00 +33°C° 0 mm 3 mps 732 mmHg 52%
    02:00 +32°C° 0 mm 4 mps 732 mmHg 58%
    03:00 +30°C° 0 mm 5 mps 732 mmHg 64%
    04:00 +30°C° 0 mm 6 mps 732 mmHg 70%
    05:00 +30°C° 0 mm 6 mps 732 mmHg 72%
    06:00 +30°C° 0 mm 5 mps 732 mmHg 73%
    07:00 +30°C° 0 mm 5 mps 733 mmHg 75%
    08:00 +30°C° 0 mm 5 mps 733 mmHg 72%
    09:00 +30°C° 0 mm 6 mps 733 mmHg 70%
    10:00 +32°C° 0 mm 6 mps 733 mmHg 67%
    11:00 +32°C° 0 mm 5 mps 733 mmHg 66%
    12:00 +33°C° 0 mm 5 mps 733 mmHg 64%
    13:00 +33°C° 0 mm 4 mps 732 mmHg 62%
    14:00 +33°C° 0 mm 3 mps 732 mmHg 61%
    15:00 +34°C° 0 mm 2 mps 731 mmHg 59%
    16:00 +34°C° 0 mm 2 mps 731 mmHg 58%
    17:00 +34°C° 0 mm 2 mps 731 mmHg 57%
    18:00 +34°C° 0 mm 2 mps 731 mmHg 57%
    19:00 +34°C° 0 mm 2 mps 731 mmHg 56%
    20:00 +34°C° 0 mm 2 mps 731 mmHg 55%
    21:00 +34°C° 0 mm 3 mps 731 mmHg 54%
    22:00 +34°C° 0 mm 3 mps 732 mmHg 52%
    23:00 +34°C° 0 mm 4 mps 732 mmHg 54%

    26 July, Friday

    Time Temperature Precipitation Wind Pressure Humidity
    00:00 +33°C° 0 mm 4 mps 732 mmHg 55%
    01:00 +33°C° 0 mm 4 mps 731 mmHg 56%
    02:00 +33°C° 0 mm 5 mps 732 mmHg 59%
    03:00 +32°C° 0 mm 5 mps 732 mmHg 62%
    04:00 +32°C° 0 mm 5 mps 732 mmHg 65%
    05:00 +30°C° 0 mm 6 mps 732 mmHg 68%
    06:00 +30°C° 0 mm 7 mps 732 mmHg 71%
    07:00 +31°C° 0 mm 8 mps 732 mmHg 74%
    08:00 +31°C° 0 mm 8 mps 733 mmHg 74%
    09:00 +31°C° 0 mm 9 mps 733 mmHg 74%
    10:00 +31°C° 0 mm 9 mps 733 mmHg 74%
    11:00 +31°C° 0 mm 8 mps 733 mmHg 72%
    12:00 +32°C° 0 mm 7 mps 733 mmHg 70%
    13:00 +32°C° 0 mm 6 mps 733 mmHg 69%
    14:00 +32°C° 0 mm 6 mps 732 mmHg 67%
    15:00 +33°C° 0 mm 5 mps 732 mmHg 66%
    16:00 +33°C° 0 mm 5 mps 731 mmHg 64%
    17:00 +33°C° 0 mm 5 mps 731 mmHg 65%
    18:00 +33°C° 0 mm 4 mps 731 mmHg 65%
    19:00 +33°C° 0 mm 4 mps 731 mmHg 66%
    20:00 +32°C° 0 mm 5 mps 731 mmHg 68%
    21:00 +32°C° 0 mm 6 mps 732 mmHg 71%
    22:00 +30°C° 0 mm 7 mps 732 mmHg 74%
    23:00 +30°C° 0 mm 7 mps 732 mmHg 75%
    Show more